Location: Poughquag
(41.6090°N, 73.6820°W)
Time: 14:55:04
(UTC-04:00)

Altair - Pass Details

Date: 31 May 2020
Orbit: 1501 x 1683 km, 47.2° (Epoch: 05 July)

Event Time Altitude Azimuth Distance (km) Brightness Sun altitude
Rises 00:44:34 0° 262° (W) 4,868 10.1 -26.4°
Reaches altitude 10° 00:47:43 10° 265° (W) 3,900 9.6 -26.4°
Maximum altitude 00:57:45 68° 348° (NNW) 1,783 7.9 -26.4°
Drops below altitude 10° 01:07:55 10° 72° (ENE) 3,943 9.9 -26.3°
Sets 01:11:08 0° 75° (ENE) 4,924 10.4 -26.3°
